Other Public Products
Issued by NWS Grand Forks, ND

Home | Current Version | Previous Version | Text Only | Print | Product List | Glossary Off
Versions: 1 2 3 4 5 6 7 8 9 10 11 12 13 14 15 16 17 18 19 20 21 22 23 24 25 26 27 28 29 30 31 32 33 34 35 36 37 38 39 40 41 42 43 44 45 46 47 48 49 50

000
FPUS83 KFGF 222331
OPUFGF
PRAIRIE TO PINES WEATHER ROUNDUP
NATIONAL WEATHER SERVICE EASTERN NORTH DAKOTA/GRAND FORKS ND
600 PM CDT FRI MAY 22 2015

 **SATELLITE DATA USED TO AUGMENT SKY COVER AT AUTOMATED STATIONS**
 *****  WEATHER ACROSS EASTERN NORTH DAKOTA  *****

CITY           SKY/WX    TMP DP  RH WIND       PRES   REMARKS
GRAND FORKS    MOSUNNY   77  35  21 VRB6      30.11F
GRAND FORKS AF SUNNY     77  38  24 S7        30.12F
GRAND CITY NWS   N/A     75 N/A N/A SW14        N/A
BUXTON           N/A     77  41  27 SE6         N/A
DEVILS LAKE    SUNNY     75  34  22 S13G18    30.11F
FARGO          SUNNY     75  40  28 S9        30.13F
WAHPETON ARPT  CLEAR     73  32  21 E7        30.13F
$$

 *****  WEATHER ACROSS CENTRAL AND WESTERN NORTH DAKOTA  *****

CITY           SKY/WX    TMP DP  RH WIND       PRES   REMARKS
JAMESTOWN      NOT AVBL
BISMARCK       MOSUNNY   74  37  26 SE15G23   30.08F
MINOT          PTSUNNY   76  30  18 E6        30.07F
MINOT AFB      PTSUNNY   79  35  20 SE10      30.06F
GARRISON         N/A     75  34  22 S15       30.08F
WILLISTON      SUNNY     76  32  20 SE15G25   30.03F
DICKINSON      MOSUNNY   70  34  26 SE22G28   30.04F
HETTINGER      MOSUNNY   67  34  29 SE21G30   30.06F
$$

 *****  OTHER OBSERVATIONS NORTHEAST NORTH DAKOTA  *****

CITY           SKY/WX    TMP DP  RH WIND       PRES   REMARKS
WALHALLA       FAIR      73  41  31 E5        30.09S
LANGDON        FAIR      75  36  23 SW13      30.12S
CAVALIER       FAIR      77  37  24 SW10      30.09S
GRAFTON        FAIR      77  43  29 S12       30.10F
CANDO          FAIR      75  28  17 S16       30.11F
FORT TOTTEN      N/A     76  31  19 S10       29.95S
ROLLA          FAIR      73  27  17 S15       30.11F
RUGBY          NOT AVBL
 ***** THE ABOVE OBSERVATIONS ARE NON NWS ARE NOT QUALITY
        CONTROLLED AND MAY MIS-REPORT RAIN FOR SNOW...
$$

 *****  OTHER OBSERVATIONS SOUTHEAST NORTH DAKOTA *****

CITY           SKY/WX    TMP DP  RH WIND       PRES   REMARKS
COOPERSTOWN    NOT AVBL
VALLEY CITY    FAIR      73  32  21 S12       30.13S
OAKES            N/A     73  37  27 SE7       30.12S
GWINNER        NOT AVBL
SHEYENNE NWR     N/A     77  30  18 S8        29.95
BUFFALO        NOT AVBL
WYNDMERE         N/A     75  27  16 SE7         N/A
 ***** THE ABOVE OBSERVATIONS ARE NON NWS ARE NOT QUALITY
       CONTROLLED AND MAY MIS-REPORT RAIN FOR SNOW...
$$

  *****  WEATHER ACROSS NORTHERN MINNESOTA  *****

CITY           SKY/WX    TMP DP  RH WIND       PRES   REMARKS
FLAG ISLAND    MOSUNNY   75  37  25 W13G21    30.04S
WARROAD        SUNNY     75  45  33 SW15      30.09F
ROSEAU         SUNNY     75  39  27 SW13G20   30.09F
HALLOCK        MOSUNNY   79  36  21 W16       30.08F
THF RVR FALLS  SUNNY     75  36  23 SW8       30.13F
HALSTAD          N/A     76  34  21 SW10        N/A
FOSSTON        SUNNY     77  34  20 CALM      30.15S
BAUDETTE       MOSUNNY   74  37  26 W14       30.10S
WASKISH        SUNNY     70  45  40 CALM      30.13S
CROOKSTON      SUNNY     75  36  23 SW8       30.13F
$$
  *****  WEATHER ACROSS CENTRAL AND WEST MINNESOTA  *****

CITY           SKY/WX    TMP DP  RH WIND       PRES   REMARKS
BEMIDJI        SUNNY     74  36  25 W6        30.14F
PARK RAPIDS    SUNNY     74  32  21 CALM      30.15F
WADENA         SUNNY     72  37  28 CALM      30.16F
DETROIT LAKES  SUNNY     72  36  26 SW7       30.17F
MOORHEAD       SUNNY     73  36  25 S7        30.14F
FERGUS FALLS   SUNNY     73  36  25 E7        30.14F
ELBOW LAKE     FAIR      73  36  26 SE7       30.15S
MORRIS MN      MOSUNNY   75  32  20 S7        30.14F
STAPLES        SUNNY     72  34  25 S7        30.16F
WHEATON        SUNNY     72  32  23 SE6       30.15F
$$
  *****  WEATHER ELSEWHERE ACROSS MINNESOTA  *****

CITY           SKY/WX    TMP DP  RH WIND       PRES   REMARKS
DULUTH         MOSUNNY   73  31  21 SW5       30.16F
INTRNTL FALLS  SUNNY     75  35  23 W7        30.10F
ELY            SUNNY     72  28  20 W8G18     30.13S
CLOQUET        SUNNY     72  27  18 SW5       30.16F
BRAINERD       SUNNY     73  32  22 CALM      30.17F
HIBBING        SUNNY     73  32  22 NW7       30.15S
ALEXANDRIA     SUNNY     72  33  24 S7        30.18F
SAINT CLOUD    SUNNY     72  34  24 CALM      30.17F
MINNEAPOLIS    MOSUNNY   74  35  24 SE6       30.18S
$$

  *****  WEATHER ACROSS SOUTH DAKOTA  *****

CITY           SKY/WX    TMP DP  RH WIND       PRES   REMARKS
SIOUX FALLS    CLOUDY    69  40  34 S12       30.15S
BROOKINGS      CLOUDY    73  32  21 S8        30.14F
WATERTOWN      CLOUDY    73  36  25 SE7       30.13F
HURON          CLOUDY    71  38  29 S15G21    30.12S
SISSETON         N/A     74  25  16 VRB3      30.12F
ABERDEEN       CLOUDY    76  37  24 S8        30.10F
MITCHELL       CLOUDY    69  40  34 SW20G28   30.14S
PIERRE         CLOUDY    66  38  35 S20G26    30.10R
MOBRIDGE       PTSUNNY   74  40  29 S21       30.06F
RAPID CITY     CLOUDY    59  42  53 S16       30.06F
$$

  *****  SOME WEATHER IN NEARBY STATES *****

CITY           SKY/WX    TMP DP  RH WIND       PRES   REMARKS
GLASGOW MT     CLOUDY    72  40  31 SE18G25   29.96F
GREAT FALLS MT MOSUNNY   70  37  29 VRB5      29.91F
CHEYENNE WY    CLOUDY    47  41  80 E9        30.01R
SCOTTSBLUFF NE CLOUDY    49  47  93 E20       30.04S
OMAHA NE       PTSUNNY   65  47  52 E9        30.20F
DES MOINES IA  CLOUDY    74  39  28 SW6       30.19S
DAVENPORT IA   PTSUNNY   75  31  19 CALM      30.20R
CHICAGO IL     CLOUDY    60  25  26 E12       30.26R
EAU CLAIRE WI  SUNNY     71  33  24 W3        30.19F
LA CROSSE WI   PTSUNNY   75  32  20 NW5       30.18S
$$

  *****  SOME NATIONAL WEATHER *****

CITY           SKY/WX    TMP DP  RH WIND       PRES   REMARKS
LA GUARDIA NY  MOSUNNY   71  38  29 W14G28    29.95R
RALEIGH NC     MOSUNNY   72  43  35 NW6       30.20R
ATLANTA GA     MOSUNNY   77  51  40 NW3       30.19S
NEW ORLEANS LA PTSUNNY   82  65  56 CALM      30.13F
OKLAHOMA CITY  DRIZZLE   55  53  93 SE15      30.13F FOG
ALBUQUERQUE NM MOSUNNY   74  29  19 S24G32    29.94F
SALT LAKE CITY CLOUDY    61  40  45 E7        29.87F
LOS ANGELES CA PTSUNNY   64  51  62 W13G20    30.02F
BOISE ID       PTSUNNY   72  40  31 CALM      29.81F
SEATTLE WA     CLOUDY    60  51  72 W8        30.02S
$$

*** WEATHER ACROSS MANITOBA...SASKATCHEWAN AND ONTARIO ***
                ***ONTARIO***

CITY           SKY/WX    TMP DP  RH WIND       PRES   REMARKS
GERALDTON      MOSUNNY   57  19  23 SW8       30.12F
THUNDER BAY    SUNNY     59  23  25 S10G17    30.17F
SIOUX LOOKOUT  MOSUNNY   72  36  26 SW9       30.05F
TORONTO        SUNNY     52  30  43 N17       30.20R
BIG TROUT LK   PTSUNNY   57  23  26 SW5       29.94F
PICKLE LAKE    CLOUDY    63  30  29 S7        30.01F
DRYDEN         SUNNY     72  36  26 SW16G23   30.06F
KENORA         MOSUNNY   72  41  33 S8        30.05F
$$
                *** MANITOBA***

CITY           SKY/WX    TMP DP  RH WIND       PRES   REMARKS
BRANDON        PTSUNNY   79  37  22 SW10G17   30.07F
DAUPHIN        MOSUNNY   77  36  22 W12G18    30.02F
ISLAND LAKE    MOSUNNY   72  32  23 NW13G21   29.87R
PILOT MOUND      N/A     77  28  16 S7          N/A
THE PAS        MOSUNNY   79  30  17 N6        29.92F
THOMPSON       MOSUNNY   79  32  18 N7G18     29.88F
WINNIPEG       PTSUNNY   79  36  21 W15       30.05F
LYNN LAKE      MOSUNNY   77  34  20 N10G17    29.92R
CHURCHILL      CLOUDY    34  32  93 N20       30.04R WCI  22
GILLAM         PTSUNNY   61  36  39 N7        29.87S
$$
                ***SASKATCHEWAN***

CITY           SKY/WX    TMP DP  RH WIND       PRES   REMARKS
ESTEVAN        MOSUNNY   75  30  19 S14G21    30.06F
KINDERSLEY     SUNNY     77  25  14 S9G18     30.00S
LLOYDMINSTER   MOSUNNY   77  23  13 S9        30.00S
PRINCE ALBERT  MOSUNNY   79  32  18 W12G20    29.99F
REGINA         MOSUNNY   73  36  25 S7        30.04F



USA.gov is the U.S. government's official web portal to all federal, state and local government web resources and services.